STARLINK-34632

Last updated on Sat Aug 16 2025 00:02:05 GMT+0000 (Coordinated Universal Time)

1 64792U 25150C 25227.35783748 .00173196 00000+0 16159-2 0 9994 2 64792 69.9991 315.3691 0003924 278.7499 81.3250 15.66618606 5093
UTC large
Height (km)
Speed (km/s)
/
Latitude / Longitude
Inclination (degrees)
Orbital Period (minutes)
Azimuth
Elevation
Range (km)
Doppler Factor

Next 0 passes for location: London (51.5072 / 0.1276)

Sorry there are no passes over London.